Theta_e
293 293 293 292 292 291 291 291 290 290 289 288 288 288 288 287 287 287 286 286 285 284 283 281 280 279 278 277 277 276 276 276 275 275 274 274 273 273 273 273 272 272 271 271 271 270 270 270 269 269 269 269 268 268 268 268 268 268 268 268 268 268 268 268 267 267 267 268 268 267 268 268 268 268 268 268 268 268 268 267 267 267 267 267 267
292 292 292 292 292 291 291 291 290 290 289 288 288 288 287 287 287 286 286 285 285 284 282 281 279 278 278 277 277 276 276 275 275 274 274 274 273 273 273 272 272 272 271 271 271 270 270 270 269 269 269 268 268 268 268 268 268 267 267 267 267 267 267 267 267 267 267 267 267 267 267 267 267 267 267 267 267 268 267 267 267 267 267 267 267
292 292 292 291 291 291 291 290 290 289 289 288 288 287 287 287 286 286 286 285 284 283 282 280 279 278 277 277 276 276 275 275 275 274 274 273 273 273 273 272 272 272 271 271 271 270 270 269 269 269 269 268 268 268 268 267 267 267 267 267 267 267 267 267 267 266 266 266 267 267 267 267 267 267 267 267 267 267 267 267 267 267 267 267 267
291 291 291 291 291 291 290 290 290 289 289 288 287 287 286 286 286 286 285 284 283 282 280 279 278 278 277 277 276 276 275 275 275 274 274 274 273 273 273 272 272 272 271 271 270 270 270 269 269 269 268 268 268 268 267 267 267 267 267 267 267 266 266 266 266 266 266 266 266 266 266 266 266 266 266 267 267 267 267 267 267 267 267 267 267
291 291 291 291 291 291 290 290 289 289 288 288 287 287 286 286 285 285 284 283 282 281 279 279 278 278 277 277 276 276 275 275 275 274 274 273 273 273 273 272 272 271 271 271 270 270 270 269 269 269 268 268 267 267 267 267 266 266 266 266 266 266 266 266 266 266 266 265 265 266 266 266 266 266 266 266 266 266 267 267 267 267 267 267 267
291 290 290 290 290 290 290 289 289 288 288 287 287 286 285 285 284 284 283 283 281 280 279 278 278 277 277 277 276 276 276 275 275 274 274 273 273 273 272 272 272 271 271 271 270 270 270 269 269 269 268 268 267 267 267 266 266 266 266 266 265 265 265 265 265 265 265 265 265 265 265 265 265 265 266 266 266 266 266 266 266 267 267 266 266
290 290 290 290 290 290 289 289 288 288 287 287 286 285 285 284 284 283 283 282 281 279 278 278 278 277 277 277 276 276 275 275 274 274 273 273 273 272 272 272 272 271 271 270 270 270 269 269 269 269 268 268 267 267 267 266 266 266 266 265 265 265 265 265 265 265 265 265 265 265 265 265 265 265 265 266 266 266 266 266 266 266 266 266 266
289 289 289 289 289 289 288 288 288 287 286 286 285 285 284 283 283 282 282 281 280 279 278 278 277 277 277 276 276 275 275 274 274 274 273 273 272 272 272 272 271 271 271 270 270 269 269 269 269 268 268 268 267 267 267 266 266 266 265 265 265 265 264 264 264 264 264 264 264 264 264 264 265 265 265 265 266 266 266 266 266 266 266 266 266
287 288 288 287 287 287 287 287 286 286 285 285 284 283 283 282 282 281 280 280 279 278 278 277 277 276 276 275 275 275 274 274 274 273 273 273 272 272 272 272 271 271 270 270 269 269 269 268 268 268 268 268 267 267 267 266 266 266 265 265 265 264 264 264 263 263 263 263 263 263 263 264 264 264 264 265 265 265 265 266 266 266 266 266 266
286 286 286 286 286 285 285 285 285 284 284 283 283 282 282 281 281 280 279 279 278 277 277 276 276 275 275 274 274 274 274 274 273 273 273 273 272 272 272 271 271 270 270 269 269 269 268 268 268 268 267 267 267 267 266 266 266 266 265 265 264 264 264 263 263 263 262 262 262 263 263 263 264 264 264 264 265 265 265 266 266 266 266 266 266
284 284 284 284 284 284 283 283 283 282 282 282 281 281 280 280 279 279 278 277 277 276 276 275 275 275 275 274 274 274 273 273 273 273 273 273 272 272 271 271 270 270 270 269 269 268 268 268 267 267 267 267 267 266 266 266 266 266 265 265 264 264 264 263 263 262 262 262 262 262 263 263 263 264 264 264 265 265 265 266 266 266 266 265 265
283 283 283 283 282 282 281 281 280 280 280 280 280 279 279 278 278 277 276 276 276 275 275 275 275 274 274 274 273 273 273 273 273 273 274 274 273 272 271 270 270 269 269 268 268 268 268 267 267 267 266 266 266 266 266 266 266 266 265 265 265 264 264 264 263 263 262 262 262 262 263 263 263 264 264 264 265 265 265 265 265 265 266 265 265
282 282 282 281 281 280 280 279 279 279 278 278 278 277 277 277 276 276 275 275 275 275 274 274 274 274 273 273 273 272 272 272 273 273 273 274 273 273 271 270 270 269 269 268 268 268 267 267 267 266 266 266 266 266 266 265 265 265 265 265 265 265 265 265 265 264 263 263 262 262 263 263 263 264 264 264 265 265 265 265 265 265 265 265 265
281 280 280 279 279 279 278 278 277 277 277 277 276 276 276 276 275 275 274 274 274 274 273 273 273 273 273 272 272 272 272 272 272 273 273 273 273 273 272 270 270 269 269 268 268 268 268 267 267 266 266 266 266 266 265 265 265 265 265 265 265 265 265 265 265 265 265 264 263 263 263 263 263 263 264 264 264 265 265 265 265 265 265 265 265
280 279 279 278 278 277 277 276 276 276 276 275 275 275 275 274 274 274 273 273 273 273 273 272 272 272 272 272 272 271 271 271 271 272 272 272 272 272 271 271 270 269 269 269 268 268 268 267 267 267 267 266 266 266 266 265 265 265 265 265 265 265 265 265 265 265 265 265 265 264 264 264 264 264 264 264 264 264 264 265 265 265 265 265 265
279 278 278 277 276 276 276 275 275 275 275 274 274 274 273 273 273 273 272 272 272 272 271 271 271 271 271 271 270 270 270 270 270 270 271 271 271 271 271 270 270 269 269 269 268 268 268 268 267 267 267 266 266 266 266 266 265 265 265 265 265 264 264 265 265 265 265 265 265 265 265 265 264 264 264 264 264 264 264 264 264 264 264 264 264
278 278 277 276 276 275 275 275 274 274 274 273 273 273 273 272 272 272 271 271 271 271 270 270 270 270 270 270 269 269 269 269 269 269 270 270 270 270 270 269 269 269 268 268 268 268 268 268 267 267 267 267 266 266 267 267 266 266 265 265 264 264 264 264 265 265 266 266 266 266 265 266 266 266 266 266 265 265 264 264 264 264 264 264 264
277 277 276 275 275 275 274 274 274 273 273 273 272 272 272 272 271 271 271 270 270 270 270 270 269 269 269 269 268 268 268 268 267 268 269 269 269 269 269 269 268 268 268 268 268 267 267 267 267 267 267 266 266 267 267 268 267 267 266 265 265 264 264 264 264 264 265 266 266 266 266 266 267 267 267 267 267 266 265 264 264 264 264 264 264
276 276 275 275 274 274 274 274 273 273 273 272 272 272 271 271 270 270 270 270 270 269 269 269 268 268 268 268 267 267 267 267 266 267 268 269 269 269 269 268 268 268 267 267 267 267 267 266 266 266 266 266 267 267 267 268 267 267 267 266 266 265 265 265 264 264 264 264 265 265 265 266 266 266 266 266 267 267 267 266 265 265 264 264 264
275 274 274 274 273 273 273 273 272 272 272 272 272 271 271 270 270 270 269 269 269 268 268 268 268 267 267 267 267 266 266 266 266 266 267 268 268 269 268 268 267 267 267 267 266 266 266 266 266 266 266 267 267 267 267 267 267 267 267 267 266 266 266 265 265 265 264 264 264 264 264 264 265 265 265 265 265 265 265 265 265 265 265 265 265
274 273 273 273 272 272 272 272 272 271 271 271 271 271 270 270 269 269 269 269 268 268 267 267 267 267 266 266 266 266 266 266 265 265 266 267 268 268 268 268 267 267 267 266 266 266 266 265 265 265 265 266 267 267 267 267 267 267 267 267 267 267 266 266 265 265 264 264 264 264 263 263 264 264 264 264 264 264 264 264 264 264 264 265 265
273 272 272 272 271 271 271 271 271 271 270 270 270 270 269 269 269 268 268 268 267 267 267 266 266 266 266 266 266 265 265 265 265 265 265 266 267 268 268 268 267 267 267 266 266 266 265 265 265 265 265 265 266 267 267 267 267 267 267 267 267 268 267 267 266 265 265 264 264 264 263 263 263 263 263 263 263 264 264 264 265 264 264 264 265
271 271 271 271 270 270 270 270 270 270 270 269 269 269 268 268 268 268 267 267 266 266 266 266 265 265 265 265 265 265 264 264 264 264 264 265 266 267 267 268 268 267 267 266 266 266 265 265 265 265 265 265 266 266 266 266 267 267 267 268 268 268 268 268 267 266 266 265 264 264 264 263 263 263 263 263 263 264 264 264 265 265 265 264 264
271 270 270 270 269 269 269 269 269 269 269 268 268 268 267 267 267 267 266 266 265 265 265 265 264 264 264 264 264 264 264 264 264 264 264 264 265 266 267 267 267 267 267 267 266 266 265 265 265 265 265 265 266 266 266 267 267 267 267 268 268 267 267 267 267 267 266 266 265 265 264 264 264 263 263 263 263 264 264 264 264 264 264 265 265
270 270 269 269 269 268 268 268 268 268 268 267 267 267 267 266 266 266 266 265 265 264 264 264 264 264 264 264 264 264 264 264 264 264 264 264 264 265 266 266 266 266 266 266 266 265 265 265 265 265 265 266 266 266 266 266 266 266 266 266 266 266 266 265 265 266 266 266 265 265 265 265 264 264 264 264 264 264 264 264 264 264 264 264 264
269 269 268 268 268 268 267 267 267 267 267 267 267 266 266 266 265 265 265 265 264 264 264 264 264 264 264 264 264 264 264 264 264 264 263 263 263 263 264 264 264 264 264 264 264 264 264 264 264 264 265 265 265 265 264 264 264 264 264 264 264 265 265 265 265 264 264 265 265 265 265 265 265 264 264 264 264 264 264 264 264 264 264 264 264
268 268 268 267 267 267 267 267 266 266 266 266 266 266 265 265 265 265 265 264 264 264 264 264 264 263 263 263 264 264 264 263 263 263 263 263 263 263 263 263 263 263 263 263 263 263 263 263 263 263 263 263 263 263 263 263 263 263 263 263 263 263 264 264 264 264 264 264 264 264 264 264 265 264 264 264 264 264 264 264 264 264 264 263 263
267 267 267 267 266 266 266 266 266 266 265 265 265 265 265 265 264 264 264 264 264 264 264 264 264 263 263 263 263 263 263 263 263 263 263 263 262 262 262 262 262 263 263 263 263 263 263 263 263 262 262 262 262 262 262 262 262 262 262 262 262 262 262 262 263 263 263 263 263 263 264 264 264 264 264 264 264 264 264 264 264 263 263 263 261
266 266 266 266 266 266 266 266 265 265 265 265 265 265 265 264 264 264 264 264 264 264 263 263 263 263 263 263 263 262 262 263 263 263 263 263 263 263 263 263 263 263 263 263 263 263 262 262 262 262 262 262 262 262 262 262 262 262 262 262 262 262 262 262 262 262 262 263 263 263 263 263 263 263 263 263 263 264 264 263 263 263 262 262 261
265 265 266 266 266 266 265 265 265 264 264 264 264 264 264 264 264 264 264 264 263 263 263 264 264 264 263 263 263 263 262 263 263 263 264 264 265 265 264 264 264 264 264 264 263 263 262 262 262 261 261 261 261 261 261 261 261 261 261 261 261 261 261 261 261 262 262 262 262 262 263 263 263 263 263 263 263 263 263 263 262 262 262 261 260
264 264 264 265 265 264 264 264 263 263 263 263 263 263 263 263 263 263 264 264 264 264 264 265 265 265 265 264 264 264 264 264 264 264 265 265 266 266 265 265 265 265 265 265 264 264 263 263 263 262 262 261 261 261 261 261 261 261 261 261 261 261 261 261 261 261 261 262 262 262 262 262 262 262 262 262 262 262 262 262 262 261 261 260 260
262 263 263 263 263 263 263 263 263 263 263 263 263 263 262 262 262 262 262 263 263 264 264 265 265 265 266 265 265 265 265 265 264 265 265 265 265 264 264 264 264 265 264 264 264 264 264 263 263 263 263 262 262 262 262 261 261 261 261 261 261 261 261 261 261 261 261 261 261 262 262 262 262 261 261 261 261 261 261 261 261 261 260 260 260
262 262 262 262 262 262 262 262 262 262 262 262 262 262 262 262 261 261 261 262 262 262 263 263 264 264 264 265 265 265 264 264 264 264 264 263 263 263 263 263 263 264 264 263 263 263 263 263 262 262 262 262 262 262 262 262 262 262 261 261 261 261 261 262 262 261 261 261 261 261 261 261 261 261 261 261 261 260 260 260 260 260 259 259 259
261 261 261 261 261 261 261 261 261 261 262 262 262 262 261 261 261 261 260 260 260 261 261 261 261 261 261 262 262 262 262 262 262 262 261 261 262 262 262 262 262 262 262 262 262 261 261 261 261 261 261 261 261 261 261 261 261 261 261 261 261 261 261 261 261 261 261 261 261 261 261 261 261 261 260 260 260 260 260 259 259 259 259 258 258
261 261 261 261 261 261 261 260 261 261 261 261 261 261 261 261 261 260 260 260 259 259 260 260 260 259 259 260 260 260 260 260 260 259 260 260 261 261 261 261 261 260 260 260 260 260 260 260 260 260 260 260 259 259 259 259 259 259 259 259 259 259 259 259 259 260 260 260 260 261 261 260 260 260 260 260 260 259 259 259 259 258 258 258 258
260 260 260 260 260 261 261 260 260 260 260 260 260 260 260 260 260 260 259 259 259 259 259 259 259 259 259 259 259 259 259 259 259 259 260 261 261 261 260 259 259 259 259 258 258 258 258 258 258 258 258 258 257 257 257 257 257 257 257 257 258 258 258 258 258 258 258 258 258 259 259 259 259 259 259 259 259 259 259 259 258 258 258 258 257
260 260 260 260 260 260 260 260 260 259 259 259 259 259 259 259 259 259 259 259 259 258 258 258 258 258 258 258 258 258 259 259 259 259 260 259 259 258 258 257 257 257 257 257 257 257 256 256 256 256 256 256 256 256 256 256 255 256 256 256 256 256 256 256 257 257 257 257 257 257 257 258 258 258 258 258 258 258 258 258 258 258 257 257 257
260 260 260 260 260 259 259 259 259 259 259 259 259 259 259 258 258 258 258 258 258 258 258 258 258 258 258 258 258 258 258 258 258 257 257 257 256 256 256 256 256 256 256 256 256 255 255 255 255 255 255 255 255 255 255 254 254 254 254 254 254 254 255 255 255 255 256 256 256 256 256 256 256 256 256 256 256 256 256 257 257 257 257 257 257
260 259 259 259 259 259 259 259 258 258 258 258 258 259 259 258 258 258 258 258 258 258 258 258 257 257 257 258 258 257 257 257 257 256 256 255 255 255 255 255 255 255 255 255 255 255 255 255 254 254 254 254 254 254 254 254 254 254 253 253 253 253 253 254 254 254 254 254 254 254 254 254 254 254 254 254 254 254 255 255 255 255 255 255 255
260 259 259 259 259 259 258 258 258 258 258 258 258 258 258 258 258 258 258 258 258 257 257 257 257 257 257 257 257 257 257 256 256 256 255 255 255 254 254 255 255 255 254 254 254 254 254 254 254 253 253 253 253 253 253 253 253 253 253 253 253 253 253 253 253 253 253 253 253 253 253 253 253 253 253 253 253 253 253 253 253 254 254 254 254
259 259 259 259 258 258 258 258 258 258 258 258 258 258 258 258 258 258 258 257 257 257 257 257 257 257 257 256 257 257 257 256 256 255 255 255 254 254 254 254 254 254 254 253 253 253 253 253 253 253 253 253 253 252 252 252 252 252 252 252 252 252 252 252 252 252 252 252 252 252 252 252 252 251 252 252 252 252 252 252 252 253 253 253 253
259 259 259 259 258 258 258 258 258 258 258 258 258 258 258 258 258 257 257 257 257 256 256 256 256 256 256 256 256 256 256 256 255 255 254 254 254 253 253 253 253 253 253 253 253 253 253 252 252 252 252 252 252 252 252 252 252 252 252 252 252 252 252 252 252 252 252 252 251 251 251 251 251 251 251 251 251 251 251 251 251 252 252 252 252
259 259 258 258 258 258 258 258 258 258 258 258 258 258 258 257 257 257 257 256 256 256 256 255 255 256 255 255 255 255 255 255 254 254 254 253 253 253 253 253 253 253 253 252 252 252 252 252 252 252 252 251 251 251 251 251 251 251 251 251 251 251 251 251 251 251 251 251 251 251 251 251 251 250 250 250 250 250 250 250 251 251 251 251 251
259 258 258 258 258 258 258 258 258 258 258 258 258 257 257 257 257 256 256 256 255 255 255 255 255 255 255 255 254 254 254 254 253 253 253 253 253 253 253 252 252 252 252 252 252 252 251 251 251 251 251 251 251 251 251 251 251 251 251 251 251 251 251 251 251 251 251 251 250 250 250 250 250 250 250 250 250 250 250 250 250 250 250 250 250
259 258 258 257 257 258 258 258 258 258 257 257 257 257 257 256 256 256 256 256 255 255 255 255 255 255 254 254 254 254 253 253 253 253 253 253 252 252 252 252 252 252 252 251 251 251 251 251 250 250 250 250 250 250 250 250 250 250 250 250 250 250 250 250 250 250 250 250 250 250 250 249 249 249 249 249 249 249 249 249 249 249 249 250 250
258 258 257 257 257 257 257 257 257 257 257 257 256 256 256 256 256 256 255 255 255 255 255 255 254 254 254 253 253 253 253 253 253 253 252 252 252 252 252 252 251 251 251 251 251 250 250 250 250 250 250 250 250 250 249 249 249 250 250 250 250 250 250 250 250 250 250 250 250 250 249 249 249 249 249 249 249 249 249 249 249 249 249 249 249
257 257 256 256 257 257 257 257 257 256 256 256 256 256 255 255 255 255 255 255 255 254 254 254 254 253 253 253 253 253 252 252 252 252 252 252 252 252 251 251 251 251 250 250 250 250 249 249 249 249 249 249 249 249 249 249 249 249 249 249 250 250 250 249 249 249 249 249 249 249 249 249 248 248 248 248 248 248 248 248 248 248 249 249 249
257 256 256 256 257 257 257 256 256 256 255 255 255 255 255 255 255 254 254 254 254 254 254 253 253 253 253 252 252 252 252 252 252 252 252 252 251 251 251 251 250 250 250 250 249 249 249 248 248 248 248 248 248 248 248 249 249 249 249 249 249 249 249 249 249 249 249 249 249 249 248 248 248 248 248 248 248 248 248 248 248 248 248 248 248
257 256 256 256 256 256 256 256 255 255 255 254 254 254 254 254 254 254 253 253 253 253 253 253 253 252 252 252 252 252 252 252 252 252 251 251 251 251 250 250 250 249 249 249 248 248 248 248 248 248 248 248 248 248 248 248 249 249 249 249 249 249 249 248 248 248 248 248 248 248 248 248 247 247 247 247 247 247 247 247 247 247 248 248 248
256 256 256 256 256 255 255 255 254 254 254 254 253 253 253 253 253 253 253 253 253 253 252 252 252 252 252 252 252 252 251 251 251 251 251 251 250 250 250 250 249 249 248 248 248 248 247 247 247 248 248 247 248 248 248 248 248 248 248 248 248 248 248 248 248 248 248 248 248 248 247 247 247 247 247 247 247 247 247 247 247 247 247 247 247
255 255 255 255 255 254 254 254 253 253 253 253 253 252 252 252 252 252 252 252 252 252 252 252 251 251 251 251 251 251 251 251 251 251 250 250 250 250 249 249 249 248 248 248 247 247 247 247 247 247 247 247 248 248 248 248 248 248 248 248 248 248 248 248 248 247 247 247 247 247 247 247 247 247 247 247 247 247 247 247 247 247 247 247 247
Wind_Speed
27 28 29 29 31 32 33 33 33 34 34 34 34 35 35 34 34 34 33 32 33 34 35 37 38 38 38 38 38 38 38 37 36 35 34 31 30 29 29 28 29 28 27 27 27 27 27 27 27 26 24 23 23 23 23 24 23 23 23 22 23 22 21 20 15 15 19 19 19 19 20 21 23 23 24 25 25 24 24 24 24 23 23 24 26
24 26 27 27 28 29 30 30 29 30 31 32 32 32 33 33 32 32 31 31 32 33 35 36 36 37 37 37 37 37 37 36 35 34 33 31 30 28 27 27 29 29 28 27 27 27 27 28 27 26 25 25 24 24 24 23 23 24 24 23 24 23 22 22 19 16 17 19 18 19 19 20 23 23 22 23 24 24 25 24 23 24 25 26 27
22 23 24 25 26 26 26 27 26 27 28 29 30 30 30 30 30 30 30 30 31 32 34 34 35 36 36 36 36 36 35 35 34 34 33 32 30 29 28 28 28 29 28 28 28 27 28 28 28 27 26 26 26 25 25 25 24 23 24 23 23 23 22 22 21 19 19 20 19 18 19 21 24 24 23 24 25 24 25 25 24 25 26 27 27
20 21 22 23 24 24 24 23 23 24 26 27 28 28 28 28 28 28 28 28 29 30 31 32 34 34 35 34 34 34 34 34 34 34 33 32 31 30 29 29 29 28 28 28 28 28 28 28 28 27 27 27 27 27 27 27 26 26 25 24 23 23 23 22 23 22 20 20 19 18 19 21 24 24 23 23 24 24 25 25 26 27 27 27 27
18 19 20 20 21 20 20 20 21 22 24 24 25 25 26 26 26 27 27 27 28 29 30 31 32 34 34 34 34 34 34 34 34 34 33 31 31 30 29 29 29 28 28 28 28 28 29 29 28 27 27 28 29 29 29 28 27 27 26 26 25 24 24 23 24 24 22 22 22 20 20 22 24 24 23 23 25 25 25 25 26 26 26 25 25
15 16 16 17 16 16 16 16 17 19 21 22 22 23 23 24 25 26 26 27 28 28 29 30 32 32 33 33 33 33 34 34 34 33 32 30 29 29 28 28 28 28 28 28 28 29 29 28 28 27 27 29 30 30 30 29 28 27 27 27 26 25 24 23 23 22 23 23 23 22 21 21 23 24 22 22 24 24 23 24 25 25 25 25 25
13 13 13 13 12 12 12 13 15 16 17 19 19 20 21 23 24 24 25 27 27 27 28 29 30 31 31 31 32 33 33 32 32 32 31 30 29 29 28 27 27 27 28 28 29 29 28 28 28 28 29 30 30 30 30 29 29 29 29 28 27 25 24 24 23 22 22 23 23 22 22 21 23 23 22 21 23 24 23 23 24 24 24 25 25
10 9 9 9 9 10 10 10 12 13 14 15 16 17 19 21 22 22 23 25 26 26 27 27 28 29 29 29 30 31 31 31 30 30 29 29 29 29 28 27 27 27 27 28 28 28 28 28 28 29 30 31 32 31 31 31 30 30 30 29 28 27 26 25 24 24 23 24 24 24 23 23 24 25 24 22 23 24 23 23 24 25 24 24 25
7 7 7 7 8 8 8 9 10 11 11 12 13 15 16 18 20 21 22 24 25 25 26 26 26 27 27 27 27 28 29 30 29 29 29 29 29 28 28 27 28 28 28 27 27 27 27 27 28 29 30 31 32 32 33 33 32 32 31 29 28 28 27 27 26 25 24 23 24 24 22 23 24 24 23 23 23 24 23 23 25 25 23 24 24
5 6 6 6 6 7 7 8 9 9 10 11 13 14 16 17 19 20 21 22 23 23 24 24 25 26 26 26 26 26 27 27 27 27 28 28 29 29 29 29 29 29 29 28 27 26 27 28 29 30 30 30 30 31 33 33 34 34 33 32 31 30 28 28 27 26 24 23 23 22 21 22 25 25 24 24 24 24 23 23 24 23 22 21 22
3 4 4 5 6 6 6 7 8 8 10 11 13 14 15 17 18 19 20 21 22 22 22 23 24 24 25 25 25 25 25 26 25 24 24 25 27 29 30 30 29 29 29 28 27 27 27 28 29 29 30 30 31 32 33 33 33 33 32 32 33 33 32 31 29 27 26 24 25 24 22 23 26 26 25 25 24 23 23 23 22 21 20 17 16
2 3 3 4 4 5 6 6 7 8 10 11 12 14 15 16 17 18 18 19 20 20 21 21 22 23 23 24 24 24 24 24 23 23 23 23 24 27 29 29 29 28 27 28 28 28 29 29 29 30 31 32 33 33 33 34 33 32 30 30 31 33 34 33 32 31 30 28 27 26 27 27 27 27 26 25 24 24 23 23 22 21 21 18 16
2 2 3 4 4 4 5 5 6 7 9 10 11 12 14 15 16 16 17 17 18 19 19 20 21 21 22 23 23 24 24 23 22 21 22 23 23 24 26 27 28 28 28 28 29 29 30 30 30 31 33 34 34 35 36 36 36 35 33 31 32 33 34 34 34 34 35 33 31 31 32 30 28 28 28 25 24 23 23 23 23 23 22 21 20
1 2 3 3 2 3 4 4 5 7 8 9 10 11 12 13 14 15 15 16 17 18 18 19 20 21 22 23 23 23 23 23 21 20 21 22 23 24 24 24 25 27 29 30 30 31 31 31 30 31 33 33 34 35 36 36 36 36 36 36 36 37 36 36 37 36 36 35 34 35 36 34 32 32 31 27 25 25 24 24 25 25 26 25 25
0 1 1 1 2 2 3 3 4 6 7 8 9 10 11 12 12 13 14 15 16 17 18 19 20 21 21 21 21 21 21 22 21 20 21 22 23 24 24 23 22 23 24 25 27 28 29 29 31 32 32 32 33 33 34 35 35 36 37 38 40 40 39 40 42 41 40 39 38 38 38 37 37 37 35 33 32 31 29 29 28 27 27 27 27
1 1 1 1 2 2 2 2 3 5 6 6 7 8 9 11 12 13 14 14 15 16 16 17 18 19 19 19 19 20 21 21 22 21 21 22 22 23 24 23 22 22 22 23 25 26 26 26 28 30 30 31 31 30 30 32 34 35 36 38 39 39 41 43 43 42 42 42 42 41 40 39 38 39 39 38 38 37 36 34 32 30 27 25 24
1 1 1 1 2 3 3 2 3 5 5 6 7 8 9 11 12 13 13 13 14 14 15 15 15 16 16 17 19 21 21 22 22 21 20 21 22 23 23 23 23 23 24 26 27 26 26 26 27 28 29 31 32 30 28 29 31 33 35 37 38 37 39 42 42 39 38 40 41 42 42 42 40 40 40 39 38 39 37 34 31 31 27 20 18
2 1 2 2 4 5 4 3 3 5 6 6 7 8 9 10 12 13 13 13 13 13 13 13 14 15 17 18 19 21 22 22 21 20 20 20 21 22 23 22 22 23 24 25 26 26 27 28 28 29 30 32 32 30 29 30 30 30 31 33 34 34 36 39 40 39 38 38 38 39 40 40 40 39 39 38 37 37 36 34 32 32 27 20 18
4 3 3 4 5 5 5 4 4 4 6 7 7 8 9 10 11 12 12 12 12 12 12 13 14 16 17 18 19 20 22 22 21 19 19 19 20 21 22 21 21 23 24 24 24 25 27 29 29 30 31 31 30 30 31 32 33 32 31 30 30 33 37 38 38 39 39 39 39 40 39 38 37 37 37 38 37 35 34 32 29 28 26 25 23
5 6 5 5 5 5 5 4 4 5 6 7 7 8 9 10 11 11 12 12 11 11 12 13 15 16 17 18 19 20 21 21 21 19 19 19 20 21 22 22 22 23 24 23 23 24 26 28 29 30 30 30 30 31 34 35 36 36 35 32 31 34 38 38 38 39 39 39 39 40 40 38 37 37 38 38 38 38 37 34 30 28 26 24 24
7 6 5 4 4 4 4 5 5 5 7 8 8 9 10 11 11 11 11 11 11 12 13 14 15 16 16 17 19 20 20 21 21 20 19 19 19 20 22 22 22 23 24 23 24 25 27 28 29 30 30 29 29 31 33 35 36 36 35 33 34 37 38 38 38 39 39 39 39 39 38 37 37 38 39 38 37 38 38 37 36 34 31 28 25
6 4 3 3 3 4 5 6 7 7 7 8 9 10 10 11 12 12 12 12 12 13 15 15 16 17 17 19 20 21 22 22 23 24 22 20 20 20 22 22 22 23 23 23 24 27 28 29 30 31 30 29 29 30 32 34 35 35 33 32 33 35 36 36 36 36 35 35 35 34 34 34 35 36 37 38 37 37 36 36 35 34 34 34 32
4 5 5 5 6 6 7 8 8 8 8 9 9 10 11 12 12 13 13 13 14 15 16 17 18 19 20 22 23 24 24 24 25 26 25 22 21 20 21 22 22 23 24 24 25 27 29 30 31 31 29 29 30 31 33 34 35 35 33 31 31 32 32 31 31 31 32 32 31 30 31 32 33 34 35 35 36 36 35 34 33 32 32 34 35
7 7 7 7 8 9 9 9 9 9 9 9 10 10 11 12 13 14 14 14 15 16 17 17 18 19 21 24 25 25 24 24 24 24 24 23 21 20 21 22 22 22 24 24 24 26 27 29 29 30 30 31 33 34 34 34 34 33 31 29 28 28 26 24 23 23 25 27 28 29 30 31 31 32 34 35 35 34 33 32 31 31 31 32 33
10 9 9 9 9 9 10 10 10 10 9 9 10 12 12 13 14 15 15 15 15 16 17 17 18 19 20 22 23 22 21 20 21 22 22 22 21 19 20 20 21 22 23 24 25 25 26 27 29 30 31 32 32 31 31 30 30 30 28 26 25 24 22 21 21 20 20 20 22 24 27 30 32 32 33 33 32 31 31 31 30 30 31 31 31
11 10 10 9 10 10 11 11 10 10 10 10 11 12 13 14 15 15 15 16 16 17 18 18 18 19 20 20 21 21 19 19 21 21 21 22 22 22 21 21 21 22 23 24 25 25 25 27 28 29 30 30 30 30 30 30 29 29 28 27 26 25 22 20 19 19 20 21 20 21 22 25 28 30 30 30 30 30 30 31 31 31 31 31 30
11 11 10 10 10 10 10 11 10 9 10 11 12 13 13 14 15 16 17 17 17 17 18 19 19 19 19 20 21 21 21 21 22 22 22 23 24 24 23 23 23 23 23 24 24 24 25 26 27 29 30 30 31 31 31 31 30 29 28 29 29 28 27 25 23 23 23 23 23 23 22 22 22 24 25 26 28 29 29 29 29 30 31 31 29
11 11 10 10 9 9 9 10 10 9 10 11 12 13 14 14 15 17 18 18 18 19 19 19 20 20 19 19 20 20 21 23 23 23 22 23 24 24 24 25 25 24 25 25 25 25 25 26 27 28 28 28 29 30 31 31 30 30 30 30 31 31 30 29 28 28 27 27 26 25 24 23 23 23 23 24 25 26 26 26 27 28 29 28 25
10 10 9 9 9 8 7 8 9 10 11 11 12 13 14 14 15 18 19 18 19 20 21 22 23 22 21 20 20 19 20 24 25 23 22 22 23 24 26 27 27 28 28 28 27 26 25 26 26 27 26 26 27 28 29 30 30 30 30 31 31 31 30 30 29 29 30 29 28 26 25 25 25 25 25 25 25 26 26 26 26 27 27 27 25
9 8 8 8 8 7 8 9 10 11 11 12 13 14 15 15 15 16 19 20 20 20 21 22 24 23 22 23 23 22 24 27 26 24 23 24 25 26 27 27 27 28 28 28 27 25 23 23 25 25 25 25 25 25 26 27 27 27 29 30 30 30 30 30 30 30 30 29 29 28 27 26 25 25 25 25 24 25 27 28 28 27 27 26 24
9 8 7 8 9 10 10 11 11 11 12 13 13 15 17 18 17 15 16 17 18 19 19 20 21 21 22 23 25 26 27 28 27 26 26 27 26 24 23 22 21 21 21 22 22 20 19 19 20 21 22 23 24 25 26 26 26 26 26 27 28 29 30 30 31 31 30 29 28 28 27 26 26 25 25 24 23 24 26 27 27 27 27 26 23
8 9 9 9 10 10 11 11 12 12 13 13 13 14 15 17 19 19 16 14 14 16 18 19 20 21 21 22 23 23 23 23 23 24 25 24 22 20 20 20 21 22 22 22 21 20 20 20 19 19 20 20 21 23 24 24 26 27 26 26 27 27 29 30 31 31 30 29 28 28 27 26 26 25 25 24 23 23 25 26 26 25 25 24 23
9 10 10 10 10 11 12 12 12 12 13 13 13 14 14 15 17 20 21 20 18 17 17 17 18 19 21 21 22 22 21 19 19 20 21 23 22 21 21 22 22 22 21 20 20 19 19 20 20 20 21 21 21 21 21 21 21 22 23 24 25 26 28 30 30 30 30 29 28 27 26 26 25 24 24 24 23 22 23 24 25 24 23 22 22
10 11 11 11 12 13 13 12 12 13 14 14 14 15 16 16 17 19 21 22 22 22 21 19 18 18 20 21 20 20 20 20 19 19 21 23 22 21 20 20 20 20 20 19 19 18 18 18 19 19 19 20 19 19 17 16 16 16 16 16 17 17 18 20 22 24 26 27 28 27 26 26 26 24 23 22 22 22 22 22 23 23 22 21 21
12 13 12 11 12 14 13 13 13 14 15 16 16 16 17 18 17 18 19 19 20 22 25 25 22 19 18 19 19 19 19 19 19 19 20 19 18 18 18 19 19 19 20 20 19 18 17 17 17 18 18 18 17 17 17 17 17 17 17 17 17 16 15 14 14 14 16 17 19 21 21 22 23 24 23 21 21 20 20 21 22 22 22 22 21
13 14 13 11 12 13 14 14 14 16 17 18 18 18 19 19 20 21 21 21 21 22 24 26 25 22 20 19 19 19 19 18 18 18 18 17 16 17 17 16 17 18 19 19 19 19 18 17 17 17 17 17 17 17 17 17 17 17 17 18 19 19 20 19 18 17 17 16 16 15 15 15 16 18 18 19 20 20 20 21 21 22 22 21 21
14 13 13 12 12 13 15 17 18 18 19 19 20 20 21 22 22 21 21 22 21 21 23 24 24 23 22 21 18 17 17 16 15 15 16 16 16 16 17 17 18 19 20 20 20 19 19 18 17 17 17 17 17 17 17 17 17 17 17 17 17 17 18 19 19 19 19 18 18 18 17 16 15 15 15 16 17 18 19 19 19 20 20 20 20
14 13 13 14 14 15 17 18 19 18 18 19 20 21 21 21 21 20 21 21 21 21 22 23 22 21 22 22 19 17 16 16 16 16 17 16 15 15 16 17 17 18 19 19 19 19 19 19 19 18 18 17 17 17 16 17 17 16 16 16 16 16 16 17 17 16 15 15 15 15 15 15 15 15 14 14 14 14 15 15 16 16 17 18 18
14 14 14 14 15 16 18 19 19 18 18 19 19 20 20 21 21 21 21 21 21 21 21 21 21 22 22 22 20 17 16 17 17 17 17 16 15 14 15 16 17 17 17 17 17 17 18 18 18 18 18 17 17 17 16 16 16 16 15 15 15 15 15 15 16 16 14 13 13 12 12 13 13 13 13 13 13 13 13 14 14 15 15 16 17
16 15 15 15 16 17 18 19 19 19 19 20 20 20 20 21 21 21 20 20 20 21 21 21 22 23 23 21 19 17 17 17 18 17 17 16 15 15 15 15 16 16 15 14 14 14 15 15 15 15 16 16 16 16 16 16 16 15 14 13 13 14 14 14 14 14 14 14 14 13 13 14 14 14 15 16 16 16 16 16 17 17 17 17 18
16 17 17 18 17 18 18 19 20 20 20 20 20 20 21 21 21 21 21 20 20 21 21 21 22 24 23 20 18 17 17 17 17 16 16 15 15 15 16 15 15 15 15 14 15 15 15 14 14 14 14 14 15 15 15 15 15 14 14 13 13 13 13 13 13 13 13 13 13 13 14 14 14 14 15 15 15 15 15 16 16 16 17 17 17
17 18 19 19 19 18 18 19 20 20 20 20 21 22 22 22 22 21 21 21 21 21 21 22 23 23 22 20 17 16 16 17 17 16 16 17 17 17 16 15 15 14 14 14 14 13 13 13 13 13 13 13 14 14 15 14 14 13 13 12 11 12 13 14 14 14 13 13 12 12 12 12 12 12 12 12 12 13 13 13 13 14 14 15 15
18 18 20 20 19 19 19 20 21 21 22 22 22 22 22 22 22 21 21 21 22 21 21 21 22 22 21 19 17 16 16 17 17 17 17 17 16 16 15 14 14 14 13 13 13 12 12 12 12 13 13 13 13 13 13 12 11 11 10 10 11 12 13 14 14 15 14 13 13 13 12 12 12 11 10 10 11 12 13 13 13 13 13 13 14
18 19 20 20 20 20 20 20 21 22 22 22 22 23 23 22 23 23 23 22 22 22 21 21 20 20 20 19 18 17 17 16 16 15 15 14 14 14 14 14 14 13 12 11 11 11 11 12 12 13 13 13 12 12 11 11 11 11 12 13 14 14 14 14 14 15 14 13 13 13 13 12 12 12 12 12 12 13 14 14 14 14 14 14 14
19 20 19 19 20 21 21 21 21 21 22 22 22 22 22 22 22 22 22 21 21 20 20 20 19 19 18 18 17 17 16 16 15 14 14 13 13 14 13 12 12 11 10 10 11 11 11 11 12 12 12 12 12 11 11 12 12 13 14 15 15 14 13 13 13 13 13 11 10 11 11 11 11 12 12 13 13 15 15 15 15 15 14 15 15
22 21 19 20 21 22 22 22 21 21 21 21 22 22 22 21 21 21 21 20 20 19 19 19 19 18 18 17 17 16 16 15 15 14 13 13 13 12 12 11 11 11 10 10 10 10 10 10 10 11 12 12 12 12 12 13 14 15 15 15 14 12 12 11 11 11 11 10 10 11 11 10 10 10 11 12 13 15 15 15 15 15 15 15 15
23 21 19 20 21 21 22 21 21 21 21 21 21 21 21 21 20 20 20 19 19 19 19 18 18 17 17 17 16 16 15 15 14 13 12 12 12 11 10 10 10 9 9 8 8 8 9 10 11 13 14 14 14 13 13 14 15 15 14 12 10 10 10 10 10 10 10 11 12 12 11 10 10 10 10 12 13 14 14 13 13 14 14 15 15
21 19 19 20 20 21 21 21 20 20 20 20 20 20 20 20 20 19 19 19 19 18 18 17 17 16 16 16 15 15 14 13 13 12 11 11 10 9 9 9 9 8 7 7 8 10 12 13 14 15 15 16 16 15 14 15 15 13 11 9 8 8 9 9 9 9 10 10 11 12 11 10 10 10 11 12 12 13 13 13 12 13 14 15 16
19 18 18 19 20 20 21 20 20 20 20 20 20 20 19 19 19 19 18 18 18 17 16 16 15 15 15 15 14 14 13 12 12 11 10 9 9 9 9 9 8 7 7 9 11 13 14 14 14 14 14 14 14 14 14 14 13 11 9 8 8 8 8 8 8 9 10 10 11 11 10 10 10 11 12 12 12 11 12 13 13 14 15 14 15
17 17 18 20 20 20 20 20 20 20 19 19 19 19 19 19 19 18 18 17 17 16 15 15 15 15 14 14 14 13 13 12 11 9 9 9 9 9 8 8 7 7 9 11 13 13 12 11 11 11 11 11 11 11 11 10 9 8 7 7 7 7 8 8 8 9 10 11 11 10 10 9 10 10 12 13 13 12 13 14 14 15 15 15 15
17 18 19 20 20 20 20 19 19 19 19 19 19 19 19 19 18 18 18 17 16 16 16 15 15 14 14 14 14 13 11 10 9 9 9 9 8 8 7 7 7 9 11 12 11 10 10 10 10 11 10 9 9 8 7 5 5 5 6 6 7 8 8 8 8 9 10 11 12 11 10 9 9 10 12 13 13 14 14 14 15 15 15 15 15
Wind_Direction
255 254 253 251 248 246 245 243 242 240 238 236 234 233 233 232 231 230 228 226 223 218 215 211 208 206 206 206 206 206 206 205 204 204 203 204 204 204 205 206 208 210 211 211 212 213 216 217 218 219 220 221 223 225 228 230 232 234 235 238 239 239 241 244 251 266 267 262 263 264 265 267 268 269 273 276 276 276 276 276 276 276 276 279 283
260 258 257 254 251 249 246 244 242 240 237 234 232 232 231 230 229 228 225 224 222 218 214 210 207 206 206 206 207 206 206 205 203 203 203 203 204 204 205 205 208 211 210 210 211 213 215 216 217 218 219 220 222 223 226 228 229 232 233 234 238 239 239 243 249 260 268 264 261 262 263 265 267 268 269 271 272 274 274 273 270 271 274 278 282
265 263 259 256 254 251 247 243 240 238 235 233 231 230 230 229 227 226 223 220 219 217 214 210 207 206 207 207 207 206 206 205 204 204 204 204 204 205 205 206 208 210 210 210 211 212 214 216 217 218 217 219 222 224 226 227 227 229 232 232 235 239 238 240 247 254 264 266 262 260 261 262 265 268 268 269 271 272 270 269 269 271 274 277 280
268 264 259 257 255 251 245 241 237 234 232 232 231 229 228 227 225 224 220 217 216 215 212 210 208 207 207 207 207 207 207 206 205 206 206 206 206 205 207 209 210 211 212 212 212 213 215 216 218 219 219 219 222 225 227 229 229 230 233 234 236 240 241 241 245 251 260 266 264 260 260 262 265 267 268 269 269 268 267 269 272 274 274 277 279
266 263 259 256 253 249 244 238 235 232 230 230 230 228 227 225 223 221 218 215 215 213 210 209 208 209 209 209 209 208 208 207 206 207 207 207 207 208 209 211 213 214 214 215 216 217 217 218 219 219 220 220 222 225 227 229 231 232 234 236 237 240 243 244 246 250 256 263 265 264 261 261 264 265 265 266 268 267 266 267 270 273 275 277 279
265 261 258 255 251 248 242 236 232 230 228 228 227 226 225 222 220 219 216 214 213 211 209 208 209 211 212 213 212 211 210 209 207 207 207 207 207 209 211 213 215 216 217 218 219 220 220 221 222 221 222 223 224 226 228 229 230 232 233 235 237 238 241 243 245 248 252 257 262 264 261 258 260 263 262 262 263 263 264 266 267 268 271 273 274
262 261 258 255 251 248 245 239 234 231 229 227 226 225 223 221 219 217 214 213 211 210 209 210 211 213 214 214 214 212 210 208 208 207 206 206 207 209 212 215 217 217 219 220 221 223 223 223 224 226 227 229 229 229 229 229 230 232 234 235 236 236 238 240 242 246 252 258 261 262 261 259 258 261 262 260 259 260 263 266 267 267 267 267 269
259 261 258 254 253 251 248 243 234 229 226 224 223 222 219 217 216 213 211 212 212 212 213 213 213 214 214 213 213 211 209 207 207 206 205 206 208 211 214 216 217 218 220 222 223 223 224 225 228 231 233 234 235 235 234 233 232 232 234 236 236 236 237 239 243 247 252 257 259 260 260 260 259 260 261 259 256 256 257 260 263 265 265 264 267
257 259 256 254 253 246 242 235 225 221 218 216 215 215 213 212 212 212 211 212 213 215 215 214 212 210 209 208 208 207 206 205 205 204 205 207 210 214 217 218 220 221 221 222 223 224 225 228 231 234 236 237 239 239 240 239 235 234 235 235 235 235 237 239 242 245 248 251 253 254 256 256 254 254 254 251 250 254 256 255 258 262 264 265 265
255 253 251 246 241 235 230 226 222 220 218 216 216 215 213 211 212 212 211 211 212 213 211 209 208 206 203 203 204 204 204 204 204 205 207 211 215 218 221 223 224 223 222 221 223 225 228 232 235 237 238 239 241 242 243 242 241 241 241 240 237 234 234 236 238 240 241 243 246 247 248 250 249 248 248 249 251 254 254 253 255 261 264 265 266
247 239 234 233 232 225 217 213 213 214 213 214 215 214 211 209 209 209 207 207 208 208 207 206 206 206 204 204 204 203 204 205 205 206 210 216 222 224 225 225 224 223 223 223 224 227 231 234 237 239 240 241 243 244 244 242 242 243 244 243 242 239 236 236 237 237 236 238 242 242 242 246 248 246 247 250 251 251 251 252 254 258 259 258 263
216 216 211 211 208 198 200 207 210 212 213 213 212 211 209 208 208 207 206 206 207 207 207 208 208 208 207 206 204 203 205 207 207 210 215 220 226 229 229 227 226 225 225 226 229 232 236 239 241 242 243 245 245 245 244 243 241 241 241 240 240 241 240 238 237 237 235 235 238 238 239 243 247 247 246 247 248 249 251 252 254 256 255 253 254
165 176 175 176 178 187 204 217 220 218 218 218 214 212 212 211 211 211 209 209 209 209 210 209 209 208 206 206 206 206 209 211 212 216 223 226 230 234 233 230 230 230 231 233 236 239 241 243 244 245 247 248 248 247 246 245 244 244 243 241 239 240 242 242 241 239 238 236 235 238 240 241 244 247 246 245 247 248 249 251 252 254 255 253 253
151 163 167 180 206 229 235 234 227 218 215 215 213 213 214 214 213 212 210 209 210 209 209 208 208 208 208 209 210 211 215 219 221 223 230 234 236 237 238 235 231 231 232 234 237 241 243 242 243 246 247 247 247 247 246 246 246 246 244 243 242 242 243 244 245 244 242 239 237 240 243 243 244 247 248 247 246 247 248 250 250 249 252 254 257
179 187 204 255 277 276 256 240 223 212 211 214 215 215 216 214 211 210 210 210 210 210 210 210 210 210 212 215 217 220 225 231 232 232 235 239 241 241 242 240 235 231 229 231 234 239 242 242 244 247 247 246 247 247 247 246 245 245 244 244 244 244 243 244 246 246 245 243 242 244 246 247 247 249 250 249 247 248 249 250 250 250 253 255 257
260 233 295 305 292 300 285 253 221 213 216 221 222 221 221 218 212 210 209 209 210 210 210 212 214 216 220 225 229 234 239 242 241 239 240 242 243 243 244 244 244 242 241 241 243 244 244 243 243 244 245 248 250 250 249 248 244 241 241 243 244 244 245 247 247 247 246 246 245 245 247 247 247 248 249 248 247 249 249 249 248 249 251 254 254
310 281 357 331 313 319 311 280 238 227 230 237 233 228 227 222 213 210 210 208 208 212 215 219 225 231 236 240 243 246 249 251 248 244 242 243 243 244 245 245 246 247 248 249 248 247 246 244 244 246 248 252 254 252 250 248 244 240 238 240 242 242 244 248 250 248 249 249 248 247 247 248 249 250 250 247 246 245 241 240 241 241 242 246 247
3 33 19 337 319 321 313 291 268 248 248 253 245 235 231 224 216 214 214 213 215 221 228 235 241 246 250 253 254 255 257 259 254 247 244 245 244 244 246 246 245 246 248 249 248 246 246 246 248 250 251 253 253 253 252 251 249 245 240 239 239 238 242 247 248 250 251 252 253 254 254 254 254 255 254 253 251 245 236 232 233 234 233 235 238
32 24 357 329 315 318 317 305 288 269 264 264 255 244 236 227 221 222 224 227 231 237 244 249 252 254 257 259 260 260 261 263 259 251 247 246 245 246 247 246 245 246 247 248 248 248 248 250 250 251 252 253 253 253 253 251 250 248 245 242 239 239 243 246 246 247 250 251 252 254 256 257 257 256 255 256 256 253 245 239 235 229 229 233 235
10 352 340 332 324 323 323 314 299 284 275 271 262 251 239 231 228 230 234 240 246 251 255 258 259 260 261 261 261 261 262 264 262 256 251 249 248 248 247 245 243 245 247 247 247 248 249 250 251 252 253 254 255 255 255 254 251 248 246 243 241 243 248 248 246 245 247 248 250 252 253 255 257 258 259 258 257 256 255 253 248 240 236 236 235
349 350 350 348 343 333 324 317 309 295 281 274 267 253 240 235 235 236 242 248 253 258 260 261 260 260 259 258 258 259 260 263 265 262 256 252 252 251 250 247 245 245 246 246 246 247 250 251 253 254 254 256 257 258 259 260 259 255 250 246 245 248 249 248 247 246 244 244 247 248 249 250 252 255 258 259 259 259 258 257 255 251 245 241 238
355 1 353 344 339 328 319 316 311 301 288 276 266 256 246 243 243 245 249 254 258 261 263 263 260 258 257 256 256 258 260 262 266 268 263 257 255 255 254 252 249 248 246 245 245 247 250 251 253 255 255 256 258 258 259 261 264 264 261 256 255 254 251 247 245 243 240 240 241 241 242 244 245 247 251 254 256 257 258 258 256 253 249 245 241
353 351 347 341 335 328 322 316 311 304 293 281 270 260 255 254 256 259 261 262 263 264 264 265 263 260 260 260 260 261 262 262 265 269 270 265 258 257 257 255 253 251 248 246 246 248 251 253 255 256 257 258 258 258 259 262 265 266 267 265 263 263 261 256 248 240 235 234 234 234 236 236 237 240 243 247 251 254 255 257 256 254 252 249 245
348 351 347 338 332 327 323 320 314 307 298 288 278 267 262 262 265 267 270 270 268 266 265 265 263 262 262 264 266 266 265 264 265 269 271 270 263 259 259 259 258 258 257 255 253 252 252 254 255 256 256 256 258 259 262 265 267 268 269 270 271 273 274 270 262 251 240 233 229 230 233 233 233 235 238 242 246 250 252 255 257 256 254 251 249
345 345 339 334 331 325 321 320 317 312 306 295 285 277 272 269 268 269 271 270 266 264 264 263 260 259 260 263 267 270 268 266 266 268 271 271 267 261 260 262 263 264 265 263 261 258 257 257 258 258 259 260 261 264 267 269 271 273 276 278 279 279 278 274 270 264 256 246 238 234 234 234 236 237 239 241 242 243 245 247 250 251 251 249 247
338 338 334 330 326 320 318 320 320 316 309 300 289 283 276 271 270 269 267 264 260 260 261 261 259 258 258 260 265 269 269 267 267 268 269 269 268 266 266 267 268 267 265 263 262 261 260 261 262 264 266 267 267 269 270 271 272 274 274 274 273 271 268 265 262 259 257 256 252 245 240 238 238 240 240 240 238 237 237 238 238 238 237 236 236
333 332 328 323 319 314 312 316 317 313 307 301 293 287 280 273 268 265 264 262 260 258 259 259 258 257 258 261 264 267 269 268 267 268 268 267 267 268 270 272 273 271 268 265 264 263 261 262 264 265 267 268 269 270 271 271 271 270 268 267 265 263 260 259 257 256 255 255 254 252 248 243 239 237 235 234 233 232 232 230 228 225 223 224 227
330 330 329 326 324 318 309 308 309 305 301 296 290 286 284 277 269 265 266 266 263 261 260 259 259 259 259 261 264 265 266 266 267 268 269 267 267 267 269 271 273 271 270 271 271 269 266 264 263 262 262 262 264 265 266 266 265 265 264 263 262 260 259 258 255 253 252 252 251 251 248 244 239 235 232 230 228 227 226 225 222 220 218 218 220
332 334 332 327 325 321 309 304 306 303 299 295 289 284 281 278 274 274 274 272 268 268 266 263 263 264 264 264 264 261 262 267 271 272 271 269 267 265 264 266 268 269 271 273 270 266 262 258 256 255 253 252 253 255 258 259 260 260 260 260 259 258 257 254 251 249 248 247 246 245 243 241 237 234 230 229 227 225 224 223 222 222 219 216 219
336 339 334 326 322 315 305 303 304 301 296 294 293 290 285 281 279 278 280 280 276 271 268 267 268 268 265 265 266 264 265 273 278 277 273 272 270 267 265 265 266 266 269 270 264 255 249 248 247 246 246 246 246 248 250 252 253 254 254 253 253 252 252 250 249 248 247 245 243 242 240 237 234 229 226 226 225 223 223 223 223 220 215 213 217
335 332 323 315 314 312 309 307 305 299 295 292 291 291 290 290 288 284 282 283 281 276 271 271 272 271 266 266 268 268 270 276 277 276 275 277 278 276 274 272 271 270 272 274 269 260 254 251 248 246 245 244 244 245 247 248 249 250 251 250 249 247 247 247 247 247 246 244 243 241 239 235 231 227 225 225 226 223 221 221 221 218 215 214 217
333 330 324 316 312 309 306 305 302 300 297 294 291 289 290 293 296 295 291 285 282 281 281 280 280 280 277 275 276 276 277 278 276 277 280 283 283 281 278 277 280 281 282 282 278 272 267 265 262 259 256 253 252 251 250 248 248 248 248 249 248 246 245 245 245 244 243 242 240 240 237 234 231 228 227 228 228 223 219 217 217 217 218 220 224
335 333 329 321 312 306 305 305 301 297 294 291 290 289 287 287 292 295 296 295 291 287 284 283 284 286 286 287 289 290 291 291 289 288 287 285 285 286 286 283 283 283 282 280 275 270 268 268 267 266 265 264 263 262 259 255 254 253 250 249 249 248 248 248 246 243 241 240 239 238 235 233 231 229 228 228 226 222 218 216 218 220 222 224 228
333 330 326 319 310 307 309 308 301 295 292 289 287 286 285 283 283 284 289 295 298 297 292 289 287 287 288 290 291 292 292 294 295 293 290 288 290 294 295 291 286 283 281 280 277 275 274 273 272 271 271 271 272 273 274 274 274 275 273 268 266 263 259 253 248 243 240 240 238 237 235 232 228 225 223 221 221 221 220 219 220 221 222 223 225
327 324 323 318 309 307 309 306 299 294 290 288 287 285 283 282 281 279 280 284 290 292 293 294 295 293 290 288 288 288 288 289 290 290 290 291 293 296 295 291 287 283 282 281 279 277 276 277 279 280 281 283 284 286 288 288 288 288 288 288 288 288 288 283 273 263 257 251 243 238 234 229 224 220 218 216 216 217 218 219 219 219 220 220 220
324 319 318 313 304 300 298 295 292 289 287 285 283 281 280 279 280 280 280 279 278 279 284 290 295 296 292 288 287 287 286 284 284 286 287 290 294 297 295 290 286 284 284 282 281 281 282 283 285 287 289 291 293 293 293 294 293 291 290 289 289 287 287 287 286 283 280 275 267 259 251 241 232 225 221 219 219 220 220 220 220 220 219 218 217
323 317 316 311 301 293 290 290 291 291 289 287 283 280 281 281 280 279 277 275 275 276 280 286 293 295 294 293 294 292 287 283 282 284 287 293 296 294 288 284 282 282 282 283 284 286 288 287 288 291 293 294 295 295 296 296 297 296 294 292 290 288 286 284 284 282 277 271 268 264 259 255 249 241 235 231 227 226 225 223 221 222 223 221 221
323 315 313 311 304 298 296 298 299 297 291 286 284 282 281 281 279 277 274 273 274 276 279 283 287 288 289 293 298 294 286 281 280 282 287 293 294 288 281 279 276 274 274 276 279 281 283 285 288 291 293 294 295 295 295 295 295 295 294 293 292 291 289 285 282 281 277 270 264 259 254 252 250 246 244 242 239 236 234 230 227 228 228 227 227
321 314 310 306 300 297 298 299 300 298 292 286 283 281 278 277 276 274 273 274 275 276 278 281 282 282 285 291 295 293 286 280 279 282 287 291 290 286 282 279 275 271 270 271 273 275 278 282 284 287 289 292 293 293 293 293 291 289 288 288 288 290 290 287 282 281 281 276 268 259 254 253 251 250 251 254 255 254 253 249 245 243 241 239 238
318 313 309 304 299 298 298 296 295 293 290 287 284 281 277 276 275 275 275 276 276 277 278 279 279 282 286 290 292 289 284 278 275 278 283 285 286 286 285 282 279 278 277 278 281 284 285 286 286 287 289 290 291 292 292 292 291 289 286 284 283 283 286 285 280 276 275 273 267 262 260 261 262 262 260 260 262 261 260 259 257 254 252 250 248
315 311 307 304 301 300 297 293 291 291 290 287 284 281 278 277 277 278 278 277 276 277 279 279 280 284 288 290 289 287 284 280 278 279 281 283 286 288 287 285 284 284 285 287 288 289 289 289 290 290 291 292 292 293 293 293 292 290 287 284 281 279 280 282 279 272 268 264 259 256 257 258 258 256 254 253 256 257 257 257 256 254 254 253 251
313 310 308 306 303 299 294 291 291 291 289 286 283 282 281 281 280 279 278 277 277 278 279 280 282 286 288 289 289 288 287 285 285 284 283 284 286 287 286 287 287 288 289 290 291 291 292 293 294 294 295 297 297 297 297 296 295 292 288 284 282 278 276 276 276 272 266 257 248 244 244 244 243 243 245 247 250 253 256 259 258 255 254 254 252
312 309 307 304 302 297 293 291 291 289 287 286 286 285 284 283 281 280 279 279 279 279 279 280 282 285 288 289 290 289 288 286 285 284 283 283 284 285 287 288 289 290 290 291 293 295 297 298 299 300 299 299 299 299 301 303 302 299 294 291 289 285 278 273 271 268 261 252 244 243 243 240 237 237 241 245 249 253 257 259 259 257 255 254 253
311 309 305 302 300 296 292 291 291 289 289 289 288 286 286 284 282 281 280 279 278 277 277 279 281 285 288 289 290 290 288 287 285 282 281 282 284 287 290 291 291 292 293 294 297 300 300 301 303 303 300 299 298 298 300 304 306 306 302 295 289 282 276 272 271 268 260 247 237 238 240 238 235 236 241 247 251 254 255 254 253 254 254 253 252
312 310 304 299 295 292 292 293 292 291 291 290 288 288 287 285 284 283 281 279 278 278 279 281 284 287 288 289 289 290 289 286 285 283 283 285 288 290 292 294 295 295 297 300 302 304 304 305 308 308 305 302 299 297 297 299 299 300 300 297 290 281 276 275 275 271 262 247 234 231 230 228 230 236 242 247 250 253 253 251 248 248 250 250 249
312 309 302 296 293 292 293 295 295 294 293 291 290 290 289 287 286 286 284 283 283 283 284 286 287 288 289 289 289 289 288 287 287 286 286 288 291 293 294 295 294 295 298 301 302 303 305 307 311 314 313 310 305 300 299 298 296 293 291 290 286 278 275 278 277 269 261 252 243 233 224 222 228 235 241 245 249 252 253 251 246 245 248 251 251
310 306 300 296 294 293 294 295 296 296 295 293 292 292 291 291 290 289 288 288 288 288 288 288 288 288 289 289 288 288 287 287 288 290 292 294 296 297 298 298 298 297 296 294 295 300 305 307 307 307 308 307 305 303 300 298 297 294 289 285 281 274 273 276 273 263 253 246 240 234 229 229 235 241 246 251 253 251 249 248 246 247 250 253 255
308 303 298 295 292 292 294 296 298 298 297 297 297 296 295 296 296 294 293 293 292 290 290 289 289 289 290 290 289 290 290 290 291 293 295 297 298 300 303 303 301 297 292 291 298 305 307 307 305 303 301 301 301 299 296 295 295 294 289 282 276 271 270 272 268 256 244 235 232 234 238 244 248 251 253 255 254 250 245 245 250 254 255 255 255
307 301 296 293 292 293 295 297 299 299 299 299 299 299 300 300 299 299 298 297 295 294 293 292 292 293 292 292 292 293 293 294 295 296 297 299 300 303 303 298 293 293 299 306 311 310 308 307 307 307 307 306 303 297 293 292 291 289 285 281 276 268 265 266 262 252 241 237 237 240 244 251 256 257 254 253 253 249 243 242 248 254 258 259 257
306 300 295 293 294 296 298 299 299 299 300 301 301 301 302 303 302 302 303 301 300 300 299 297 297 297 296 295 296 295 294 296 298 298 300 302 302 301 297 289 288 301 310 313 314 313 310 309 311 314 318 318 312 303 297 292 285 278 275 276 277 273 270 269 264 253 245 245 248 247 246 249 254 255 253 252 252 251 250 249 251 254 257 260 262
303 298 296 296 297 299 300 300 300 299 300 302 302 301 301 302 302 303 304 303 302 303 302 301 301 301 298 297 298 297 296 299 302 303 305 303 299 296 294 291 296 307 313 314 314 312 309 308 311 316 321 323 318 311 307 296 281 278 282 286 288 287 283 280 276 267 256 251 248 246 245 249 252 254 254 254 253 254 256 255 255 256 255 256 258